Location: Bauhof
(47.9178°N, 9.4655°E)
Time: 18:19:56
(UTC+00:00)

Daily predictions for brighter satellites

Satellite Brightness Start Highest point End
(mag) Time Altitude Azimuth Time Altitude Azimuth Time Altitude Azimuth
USA 234 4.0 19:54:56 10° E 20:01:14 51° NNE 20:07:31 10° NW
Meteor 2-10 Rocket 3.5 20:02:15 10° N 20:07:20 70° ENE 20:12:19 10° SSE
Okean 1 Rocket 3.3 20:03:27 10° NNW 20:07:57 76° W 20:12:24 10° S
Cosmos 407 Rocket 3.7 20:04:02 10° NNW 20:09:12 59° ENE 20:14:16 10° SE
APEX 4.1 20:04:09 10° SSW 20:10:09 75° ESE 20:15:09 10° NNE
SL-14 R/B 3.4 20:06:57 10° SSW 20:10:47 78° W 20:14:43 10° N
S3M 4.0 20:05:09 10° S 20:11:20 71° E 20:17:29 10° NNE
Cosmos 1455 Rocket 3.6 20:08:55 10° N 20:13:07 45° ENE 20:17:16 10° SSE
USA 245 3.9 20:08:55 10° SSE 20:14:03 67° ENE 20:18:13 10° N
SL-16 R/B 4.3 20:09:05 10° WSW 20:14:11 33° NW 20:19:20 10° NNE
Cosmos 1626 4.4 20:11:32 10° SW 20:14:40 26° WNW 20:17:49 10° NNW
MetOp-B 4.2 20:11:22 10° SSE 20:16:44 85° WSW 20:22:08 10° NNW
SPOT 5 3.2 20:13:11 10° SE 20:17:31 47° ENE 20:21:43 10° N
Cosmos 2056 Rocket 4.5 20:13:29 10° SSE 20:18:05 30° E 20:22:45 10° NE
Meteor 2-5 Rocket 4.2 20:13:10 10° SSE 20:18:20 42° E 20:23:32 10° NNE
SPOT 1/Viking Rocket 4.1 20:16:15 10° S 20:21:17 57° W 20:26:23 10° NNW
Cosmos 1271 Rocket 4.2 20:19:36 10° NNE 20:22:56 25° ENE 20:26:12 10° SE
Cosmos 1300 3.0 20:20:50 10° NNW 20:24:36 65° W 20:28:20 10° S
Cosmos 1025 Rocket 3.5 20:21:01 10° SSE 20:25:00 41° E 20:29:03 10° NNE
ERS-1 Rocket 3.2 20:24:41 10° SSE 20:29:36 57° ENE 20:34:33 10° N
Cosmos 1140 Rocket 3.5 20:27:36 10° NNW 20:32:51 86° WSW 20:37:57 10° SSE
Cosmos 1953 3.9 20:31:46 10° NNW 20:35:18 32° W 20:38:50 10° SSW
Cosmos 1943 3.7 20:31:55 10° SW 20:37:33 67° WNW 20:43:12 10° NNE
Cosmos 1745 Rocket 4.4 20:33:21 10° NNW 20:39:23 62° W 20:45:26 10° S
CZ-2C R/B 4.1 20:36:57 10° NNE 20:41:25 45° E 20:45:45 10° S
Cosmos 1603 4.1 20:35:50 10° SW 20:41:31 70° WNW 20:47:16 10° NNE
Lacrosse 5 2.8 20:37:52 10° NW 20:42:49 46° NNE 20:47:44 10° E
Cosmos 1975 Rocket 3.1 20:41:13 10° S 20:45:41 83° E 20:50:08 10° N
H-2A R/B 4.2 20:43:20 10° N 20:47:05 29° WNW 20:50:53 10° SW
Helios 1A Rocket 2.9 20:43:49 12° SSE 20:47:33 89° WSW 20:51:40 10° NNW
Ariane Rocket 4.2 20:44:15 10° SSW 20:48:58 38° W 20:53:44 10° NNW
CARTOSAT-1 4.5 20:45:26 10° S 20:49:34 45° W 20:53:44 10° NNW
Cosmos 1954 Rocket 4.3 20:44:41 10° NNW 20:49:57 59° ENE 20:54:15 15° SE
Resurs 01 Rocket 3.8 20:50:10 10° SW 20:53:37 22° W 20:57:06 10° NW
Lacrosse 4 Rocket 3.4 20:54:01 10° WSW 20:57:46 32° NW 21:01:29 10° NNE
Tiangong 2.3 20:56:43 10° SW 20:59:20 23° S 21:00:12 21° SSE
Cosmos 2228 4.4 20:58:11 10° NNE 21:01:45 26° ENE 21:04:23 15° ESE
Cosmos 1544 Rocket 3.5 21:00:01 10° N 21:04:22 78° E 21:07:38 17° SSE
Cosmos 1703 4.5 21:03:35 18° SE 21:05:27 26° E 21:08:40 10° NNE
FALCON 9 DEB 3.0 21:03:27 10° WSW 21:06:43 82° NNW 21:10:00 10° ENE
Terra 1.8 21:02:52 15° SSE 21:06:49 86° WSW 21:11:37 10° NNW
SL-8 R/B 3.7 21:03:58 10° W 21:08:48 88° N 21:13:39 10° E
USA 267 3.2 21:02:44 10° NE 21:09:17 73° SE 21:15:50 10° SW
Cosmos 1980 Rocket 4.4 21:07:09 10° N 21:10:53 17° NE 21:14:36 10° E
Cosmos 1455 2.1 21:08:20 10° N 21:12:08 87° E 21:14:42 20° S
Meteor 1-24 Rocket 3.7 21:07:01 10° SSW 21:12:19 82° WNW 21:17:44 10° N
Cosmos 2369 Rocket 4.5 21:10:02 10° WNW 21:13:12 15° W 21:16:23 10° SW
Cosmos 2315 Rocket 4.3 21:07:09 10° SSW 21:13:29 71° W 21:19:49 10° N
Cosmos 1697 Rocket 4.2 21:11:07 10° NNW 21:15:56 28° NE 21:20:44 10° ESE
NOSS 2-1 (C) 4.1 21:13:07 10° NW 21:17:28 67° NE 21:22:11 16° SE
Cosmos 1371 Rocket 4.1 21:13:08 10° SSW 21:18:21 84° WNW 21:23:40 10° NNE
Cosmos 1452 Rocket 4.3 21:17:03 19° SSE 21:19:59 33° ESE 21:24:39 10° NE
RESURS DK-1 4.1 21:16:35 10° N 21:20:00 24° NE 21:23:13 11° ESE
Spot 2 Rocket 4.3 21:15:27 11° S 21:20:06 47° W 21:25:02 10° NNW
ARIANE 5 R/B 2.8 21:23:37 19° S 21:26:49 72° WSW 21:31:18 10° NNW
NOSS 2-1 (D) 4.0 21:23:25 10° NW 21:27:51 78° NE 21:32:17 19° SE
Lacrosse 5 rocket 1.2 21:25:32 10° NW 21:29:25 81° SW 21:31:47 24° SE
ASTEX 1 4.2 21:24:51 10° NNE 21:29:28 36° E 21:32:06 21° SE
Cosmos 2084 3.2 21:26:52 11° SSW 21:30:23 56° SE 21:34:12 10° NE
Cosmos 2074 Rocket 4.0 21:31:13 10° N 21:37:33 88° E 21:42:02 20° S
Cosmos 1624 Rocket 4.5 21:35:01 10° SW 21:40:12 61° WNW 21:45:24 10° NNE
ATLAS 2AS CENTAUR R/B 2.7 21:33:05 10° NW 21:40:15 79° SW 21:44:51 22° SSE
Cosmos 1656 3.7 21:37:57 10° NNW 21:43:26 75° ENE 21:46:54 23° SE
GP-B 4.1 21:39:41 10° NNE 21:43:43 33° E 21:45:39 23° SE
USA 234 3.2 21:38:52 18° SE 21:44:03 79° SW 21:50:39 10° NW
Cosmos 1833 Rocket 3.5 21:44:37 23° SSE 21:47:01 32° ESE 21:51:58 10° NE
Cosmos 2154 Rocket 4.0 21:50:37 10° N 21:56:54 88° E 22:00:52 24° S
Nadezhda 1 Rocket 3.9 21:54:38 22° S 21:58:44 75° E 22:04:49 10° NNE
Cosmos 1271 Rocket 4.3 21:55:20 10° NNW 21:58:50 30° W 22:01:16 16° SW
Cosmos 2082 Rocket 3.8 21:59:43 17° ESE 22:01:17 19° E 22:05:06 10° ENE
Cosmos 1741 Rocket 4.0 21:58:47 10° NNW 22:04:08 85° ENE 22:07:02 28° SSE
Cosmos 1610 Rocket 4.5 21:58:36 10° N 22:04:50 90° ESE 22:08:40 25° S
Cosmos 2344 4.4 22:00:25 10° NW 22:09:06 72° NE 22:20:43 11° SE
Cosmos 968 Rocket 4.2 22:20:24 10° NNW 22:25:23 45° ENE 22:28:30 21° ESE
Cosmos 1606 Rocket 3.6 22:21:22 10° NNW 22:25:40 69° W 22:27:26 34° S
Lacrosse 5 2.1 22:20:56 10° WNW 22:25:55 53° SW 22:27:56 33° SSE
H-2A R/B 3.9 22:21:58 10° NNE 22:26:02 46° E 22:27:16 35° SE
COSMOS 2406 3.8 22:25:00 28° SSE 22:27:16 40° ESE 22:32:38 10° NE
Meteor 1-11 4.3 22:30:33 30° SSE 22:33:16 61° E 22:38:48 10° NNE
SL-8 Rocket 4.1 22:29:50 10° N 22:36:07 71° E 22:39:30 29° SSE
Cosmos 1850 Rocket 4.4 22:31:42 10° NNW 22:36:45 50° WSW 22:39:02 29° SSW
Cosmos 2369 4.1 22:31:58 10° NNW 22:37:39 59° ENE 22:41:14 23° SE
SJ 16-02 4.2 22:37:36 10° NNE 22:38:43 11° NE 22:39:50 10° ENE
Cosmos 1328 4.1 22:37:12 33° SSW 22:38:51 64° WNW 22:42:52 10° N
Cosmos 2228 4.2 22:35:31 10° NNW 22:39:18 32° W 22:41:10 22° SW
Cosmos 2218 Rocket 4.2 22:33:20 10° N 22:39:43 65° ENE 22:43:17 27° SSE
Cosmos 2341 Rocket 4.0 22:35:15 10° N 22:41:39 90° ENE 22:45:04 30° S
SL-16 R/B 4.3 22:38:17 10° N 22:42:38 22° NE 22:46:58 10° E
Cosmos 1408 2.4 22:43:33 56° SSE 22:44:08 72° E 22:47:36 10° NNE
Terra 4.3 22:43:54 10° WSW 22:45:18 11° W 22:46:43 10° WNW
Cosmos 1825 3.0 22:46:54 33° ESE 22:47:33 35° E 22:51:00 10° NNE
ALOS 2 2.5 22:46:37 39° SSE 22:48:14 87° WSW 22:52:39 10° NNW
Cosmos 2366 rocket 4.1 22:43:03 10° N 22:49:23 74° E 22:52:47 29° SSE
Cosmos 1900 4.4 22:45:45 10° NW 22:50:57 82° NE 22:53:35 30° SE
SL-8 R/B 3.6 22:46:35 10° W 22:51:26 86° SSW 22:56:16 10° ESE
Cosmos 1726 Rocket 4.1 22:47:54 10° NNW 22:52:03 47° W 22:53:36 32° SW
USA 267 4.1 22:45:52 10° NE 22:52:10 53° NNW 22:58:29 10° W
Cosmos 1980 Rocket 2.4 22:50:15 10° NNW 22:55:59 71° ENE 22:59:14 26° SE
RESURS DK-1 2.9 22:54:14 10° NW 22:58:10 43° WSW 22:59:03 37° SSW
Cosmos 1697 Rocket 2.8 22:54:46 10° NNW 23:00:18 60° WSW 23:02:42 33° S
Cosmos 1331 Rocket 4.3 22:57:22 23° SW 23:00:42 65° WNW 23:06:01 10° NNE
Cosmos 1892 2.7 23:06:34 47° SSW 23:07:31 71° W 23:11:16 10° N
Lacrosse 5 rocket 3.5 23:05:50 10° W 23:07:17 13° WSW 23:07:17 13° WSW
ERS-2 2.0 23:05:14 10° NNE 23:08:49 69° ESE 23:09:26 55° SSE
ADEOS Rocket 3.4 23:05:35 29° S 23:09:28 74° WSW 23:17:03 10° NNW
USA 276 1.9 23:10:14 79° NNE 23:10:14 79° NNE 23:13:05 10° ENE
In-Cosmos 22 Rocket 4.2 23:08:21 33° S 23:11:00 83° E 23:16:35 10° NNE
Cosmos 2084 Rocket 3.7 23:07:15 10° NW 23:11:07 59° NE 23:13:11 26° ESE
Cosmos 2058 Rocket 3.6 23:11:05 10° NNW 23:15:17 47° W 23:16:43 34° SW
Cosmos 1602 Rocket 4.0 23:15:24 36° SE 23:16:40 49° E 23:20:51 10° NNE
Cosmos 1959 Rocket 4.5 23:12:18 10° NNW 23:18:24 72° W 23:21:25 31° S
Cosmos 2181 Rocket 4.0 23:15:17 29° SSW 23:18:34 78° W 23:24:47 10° N
Cosmos 1302 Rocket 4.0 23:21:10 31° SSW 23:23:42 81° WNW 23:28:56 10° NNE
Cosmos 2278 3.9 23:18:16 10° NNW 23:24:00 71° ENE 23:27:31 24° SE
Cosmos 192 4.4 23:21:56 31° SW 23:24:17 71° WNW 23:29:12 10° NNE
Cosmos 2322 Rocket 3.9 23:20:01 10° NNW 23:24:57 29° NE 23:29:52 10° ESE
Geosat FO 4.4 23:25:31 55° SE 23:26:11 87° ENE 23:29:44 10° NNW
USA 234 4.3 23:26:11 23° SSW 23:27:44 25° SW 23:32:58 10° WNW
ATLAS 2AS CENTAUR R/B 4.3 23:25:47 10° WNW 23:29:57 17° WSW 23:32:16 14° SW
Cosmos 1833 Rocket 3.5 23:26:16 15° SW 23:30:46 46° NW 23:36:12 10° NNE
CZ-2D R/B 4.3 23:33:25 10° ENE 23:35:43 13° E 23:37:59 10° ESE
Geosat 4.2 23:35:56 24° SE 23:39:01 71° ENE 23:44:03 10° NNW
BREEZE-M DEB (TANK) 4.2 23:37:04 10° WNW 23:40:53 90° N 23:57:59 10° ESE
Okean 1-7 Rocket 4.0 23:39:48 33° SW 23:41:29 54° WNW 23:45:53 10° N
Cosmos 1626 Rocket 3.8 23:42:03 36° SW 23:43:34 59° WNW 23:47:51 10° N
Cosmos 2082 Rocket 2.3 23:41:32 28° SW 23:44:42 78° WNW 23:50:26 10° NNE
Cosmos 1821 Rocket 4.0 23:41:20 10° N 23:47:40 84° W 23:50:56 30° S
Cosmos 1869 4.1 23:46:35 10° NNW 23:50:09 36° W 23:50:55 33° WSW
ATLAS 5 CENTAUR R/B 2.2 23:51:04 30° SE 23:51:20 31° ESE 23:54:56 10° ENE
Cosmos 1238 4.1 23:52:31 63° SE 23:52:44 66° E 23:55:44 10° NNE
Cosmos 1825 Rocket 3.9 23:53:55 35° SSE 23:55:24 54° E 23:59:38 10° NNE
